Location: Austin
(30.3000°N, 97.7500°W)
Time: 10:04:07
(UTC-05:00)

Cosmos 1844 Rocket - Pass Details

Date: 03 April 2024
Orbit: 824 x 844 km, 71.0° (Epoch: 22 April)

Event Time Altitude Azimuth Distance (km) Brightness Sun altitude
Rises 05:54:54 0° 327° (NNW) 3,380 5.7 -18.1°
Reaches altitude 10° 05:57:36 10° 317° (NW) 2,440 4.8 -17.6°
Maximum altitude 06:02:24 30° 257° (WSW) 1,444 3.3 -16.6°
Drops below altitude 10° 06:07:09 10° 198° (SSW) 2,418 4.8 -15.6°
Sets 06:09:50 0° 187° (S) 3,345 5.6 -15.1°
